contact:dominique.lefevre@mio.osupytheas.fr, maurice.libes@osupytheas.fr, didier.mallarino@osupytheas.fr
Project:EMSO http://www.emso-fr.org/EMSO-France
Depth: 2436.0 m
Title:EMSO Ligure Ouest : Data MII capteur CSTAR
DateTime,Latitude,Longitude,Instrument_Serial,Reference_Counts,Signal_Counts,Corrected_Signal_raw_counts,Calculated_Beam_c_inverse_meters,Internal_thermistor_counts
DateTime,Latitude,Longitude,Instrument_Serial,Reference_Counts,Signal_Counts,Corrected_Signal_raw_counts,Calculated_Beam_c_inverse_meters,Internal_thermistor_counts
2019-07-05T00:00:26,42.805,6.029,CST-1368DR,8788,12287,15481,0.035,551
2019-07-05T00:03:28,42.805,6.029,CST-1368DR,8788,12294,15490,0.032,551
2019-07-05T00:06:29,42.805,6.029,CST-1368DR,8788,12296,15492,0.032,551
2019-07-05T00:09:31,42.805,6.029,CST-1368DR,8788,12296,15493,0.032,551
2019-07-05T00:12:32,42.805,6.029,CST-1368DR,8788,12295,15491,0.032,551
2019-07-05T00:15:33,42.805,6.029,CST-1368DR,8788,12297,15494,0.031,551
2019-07-05T00:18:35,42.805,6.029,CST-1368DR,8788,12297,15493,0.032,551
2019-07-05T00:21:36,42.805,6.029,CST-1368DR,8788,12296,15492,0.032,551
2019-07-05T00:24:38,42.805,6.029,CST-1368DR,8788,12296,15493,0.032,551
2019-07-05T00:27:39,42.805,6.029,CST-1368DR,8788,12295,15492,0.032,551
2019-07-05T00:30:40,42.805,6.029,CST-1368DR,8788,12297,15494,0.031,551
2019-07-05T00:33:42,42.805,6.029,CST-1368DR,8788,12296,15492,0.032,551
2019-07-05T00:36:43,42.805,6.029,CST-1368DR,8788,12297,15493,0.032,551
2019-07-05T00:39:45,42.805,6.029,CST-1368DR,8788,12296,15492,0.032,551
2019-07-05T00:42:46,42.805,6.029,CST-1368DR,8788,12297,15493,0.032,551
2019-07-05T00:45:47,42.805,6.029,CST-1368DR,8788,12297,15493,0.032,550
2019-07-05T00:48:49,42.805,6.029,CST-1368DR,8788,12296,15493,0.032,551
2019-07-05T00:51:50,42.805,6.029,CST-1368DR,8788,12295,15491,0.032,551
2019-07-05T00:54:52,42.805,6.029,CST-1368DR,8788,12295,15492,0.032,551
2019-07-05T00:57:53,42.805,6.029,CST-1368DR,8788,12296,15492,0.032,551
2019-07-05T01:00:55,42.805,6.029,CST-1368DR,8787,12296,15494,0.031,551
2019-07-05T01:03:56,42.805,6.029,CST-1368DR,8787,12295,15493,0.032,551
2019-07-05T01:06:57,42.805,6.029,CST-1368DR,8788,12293,15489,0.033,551
2019-07-05T01:09:59,42.805,6.029,CST-1368DR,8787,12294,15492,0.032,551
2019-07-05T01:13:00,42.805,6.029,CST-1368DR,8787,12296,15494,0.031,551
2019-07-05T01:16:02,42.805,6.029,CST-1368DR,8787,12296,15494,0.031,551
2019-07-05T01:19:03,42.805,6.029,CST-1368DR,8787,12296,15494,0.031,551
2019-07-05T01:22:04,42.805,6.029,CST-1368DR,8787,12295,15493,0.032,551
2019-07-05T01:25:06,42.805,6.029,CST-1368DR,8787,12293,15490,0.032,551
2019-07-05T01:28:07,42.805,6.029,CST-1368DR,8787,12296,15494,0.031,551
2019-07-05T01:31:09,42.805,6.029,CST-1368DR,8787,12294,15492,0.032,551
2019-07-05T01:34:10,42.805,6.029,CST-1368DR,8787,12295,15493,0.032,550
2019-07-05T01:37:11,42.805,6.029,CST-1368DR,8787,12294,15492,0.032,551
2019-07-05T01:40:13,42.805,6.029,CST-1368DR,8787,12295,15493,0.032,551
2019-07-05T01:43:14,42.805,6.029,CST-1368DR,8787,12292,15489,0.033,551
2019-07-05T01:46:16,42.805,6.029,CST-1368DR,8787,12295,15493,0.032,551
2019-07-05T01:49:17,42.805,6.029,CST-1368DR,8787,12295,15493,0.032,551
2019-07-05T01:52:19,42.805,6.029,CST-1368DR,8787,12293,15490,0.032,551
2019-07-05T01:55:20,42.805,6.029,CST-1368DR,8787,12296,15494,0.031,551
2019-07-05T01:58:21,42.805,6.029,CST-1368DR,8787,12293,15490,0.032,551
2019-07-05T02:01:23,42.805,6.029,CST-1368DR,8787,12291,15488,0.033,551
2019-07-05T02:04:24,42.805,6.029,CST-1368DR,8787,12294,15492,0.032,551
2019-07-05T02:07:26,42.805,6.029,CST-1368DR,8787,12296,15494,0.031,551
2019-07-05T02:10:27,42.805,6.029,CST-1368DR,8787,12294,15491,0.032,551
2019-07-05T02:13:28,42.805,6.029,CST-1368DR,8787,12293,15490,0.032,551
2019-07-05T02:16:30,42.805,6.029,CST-1368DR,8787,12294,15492,0.032,551
2019-07-05T02:19:31,42.805,6.029,CST-1368DR,8787,12294,15492,0.032,551
2019-07-05T02:22:33,42.805,6.029,CST-1368DR,8787,12295,15493,0.032,551
2019-07-05T02:25:34,42.805,6.029,CST-1368DR,8787,12293,15490,0.032,550
2019-07-05T02:28:35,42.805,6.029,CST-1368DR,8786,12289,15487,0.033,551
2019-07-05T02:31:37,42.805,6.029,CST-1368DR,8787,12293,15490,0.032,551
2019-07-05T02:34:38,42.805,6.029,CST-1368DR,8787,12294,15492,0.032,551
2019-07-05T02:37:40,42.805,6.029,CST-1368DR,8786,12292,15491,0.032,551
2019-07-05T02:40:41,42.805,6.029,CST-1368DR,8786,12294,15493,0.032,551
2019-07-05T02:43:42,42.805,6.029,CST-1368DR,8786,12290,15488,0.033,551
2019-07-05T02:46:44,42.805,6.029,CST-1368DR,8786,12294,15493,0.032,551
2019-07-05T02:49:45,42.805,6.029,CST-1368DR,8786,12293,15491,0.032,551
2019-07-05T02:52:47,42.805,6.029,CST-1368DR,8786,12294,15493,0.032,551
2019-07-05T02:55:48,42.805,6.029,CST-1368DR,8786,12293,15492,0.032,551
2019-07-05T02:58:50,42.805,6.029,CST-1368DR,8786,12293,15492,0.032,551
2019-07-05T03:01:51,42.805,6.029,CST-1368DR,8786,12294,15493,0.032,551
2019-07-05T03:04:52,42.805,6.029,CST-1368DR,8786,12294,15493,0.032,550
2019-07-05T03:07:54,42.805,6.029,CST-1368DR,8786,12294,15493,0.032,551
2019-07-05T03:10:55,42.805,6.029,CST-1368DR,8786,12294,15493,0.032,551
2019-07-05T03:13:57,42.805,6.029,CST-1368DR,8786,12293,15492,0.032,551
2019-07-05T03:16:58,42.805,6.029,CST-1368DR,8786,12294,15493,0.032,551
2019-07-05T03:19:59,42.805,6.029,CST-1368DR,8786,12294,15493,0.032,551
2019-07-05T03:23:01,42.805,6.029,CST-1368DR,8786,12292,15490,0.032,551
2019-07-05T03:26:02,42.805,6.029,CST-1368DR,8786,12292,15490,0.032,551
2019-07-05T03:29:04,42.805,6.029,CST-1368DR,8786,12294,15493,0.032,551
2019-07-05T03:32:05,42.805,6.029,CST-1368DR,8786,12291,15490,0.032,551
2019-07-05T03:35:06,42.805,6.029,CST-1368DR,8786,12293,15492,0.032,551
2019-07-05T03:38:08,42.805,6.029,CST-1368DR,8786,12293,15491,0.032,551
2019-07-05T03:41:09,42.805,6.029,CST-1368DR,8786,12293,15492,0.032,551
2019-07-05T03:44:11,42.805,6.029,CST-1368DR,8786,12293,15492,0.032,551
2019-07-05T03:47:12,42.805,6.029,CST-1368DR,8786,12293,15492,0.032,551
2019-07-05T03:50:13,42.805,6.029,CST-1368DR,8786,12293,15492,0.032,550
2019-07-05T03:53:15,42.805,6.029,CST-1368DR,8786,12289,15487,0.033,551
2019-07-05T03:56:16,42.805,6.029,CST-1368DR,8786,12294,15493,0.032,551
2019-07-05T03:59:18,42.805,6.029,CST-1368DR,8786,12293,15491,0.032,551
2019-07-05T04:02:19,42.805,6.029,CST-1368DR,8786,12293,15492,0.032,551
2019-07-05T04:05:21,42.805,6.029,CST-1368DR,8786,12293,15492,0.032,551
2019-07-05T04:08:22,42.805,6.029,CST-1368DR,8786,12288,15485,0.034,551
2019-07-05T04:11:23,42.805,6.029,CST-1368DR,8786,12293,15491,0.032,551
2019-07-05T04:14:25,42.805,6.029,CST-1368DR,8786,12290,15489,0.033,551
2019-07-05T04:17:26,42.805,6.029,CST-1368DR,8786,12293,15492,0.032,551
2019-07-05T04:20:28,42.805,6.029,CST-1368DR,8786,12293,15492,0.032,551
2019-07-05T04:23:29,42.805,6.029,CST-1368DR,8786,12292,15490,0.032,551
2019-07-05T04:26:30,42.805,6.029,CST-1368DR,8785,12287,15486,0.033,551
2019-07-05T04:29:32,42.805,6.029,CST-1368DR,8785,12289,15489,0.033,551
2019-07-05T04:32:33,42.805,6.029,CST-1368DR,8785,12291,15491,0.032,551
2019-07-05T04:35:35,42.805,6.029,CST-1368DR,8785,12292,15492,0.032,551
2019-07-05T04:38:36,42.805,6.029,CST-1368DR,8785,12293,15493,0.032,551
2019-07-05T04:41:37,42.805,6.029,CST-1368DR,8785,12292,15492,0.032,550
2019-07-05T04:44:39,42.805,6.029,CST-1368DR,8785,12293,15494,0.031,551
2019-07-05T04:47:40,42.805,6.029,CST-1368DR,8785,12293,15494,0.031,551
2019-07-05T04:50:42,42.805,6.029,CST-1368DR,8785,12294,15494,0.031,551
2019-07-05T04:53:43,42.805,6.029,CST-1368DR,8785,12293,15494,0.031,551
2019-07-05T04:56:44,42.805,6.029,CST-1368DR,8785,12292,15492,0.032,551
2019-07-05T04:59:46,42.805,6.029,CST-1368DR,8785,12292,15492,0.032,551
2019-07-05T05:02:47,42.805,6.029,CST-1368DR,8785,12291,15491,0.032,551
2019-07-05T05:05:49,42.805,6.029,CST-1368DR,8785,12292,15493,0.032,551
2019-07-05T05:08:50,42.805,6.029,CST-1368DR,8785,12291,15491,0.032,551
2019-07-05T05:11:52,42.805,6.029,CST-1368DR,8785,12293,15493,0.032,551
2019-07-05T05:14:53,42.805,6.029,CST-1368DR,8785,12289,15488,0.033,551
2019-07-05T05:17:54,42.805,6.029,CST-1368DR,8785,12292,15493,0.032,551
2019-07-05T05:20:56,42.805,6.029,CST-1368DR,8785,12292,15492,0.032,551
2019-07-05T05:23:57,42.805,6.029,CST-1368DR,8785,12292,15492,0.032,551
2019-07-05T05:26:59,42.805,6.029,CST-1368DR,8785,12292,15492,0.032,550
2019-07-05T05:30:00,42.805,6.029,CST-1368DR,8785,12293,15493,0.032,551
2019-07-05T05:33:01,42.805,6.029,CST-1368DR,8785,12292,15492,0.032,551
2019-07-05T05:36:03,42.805,6.029,CST-1368DR,8785,12289,15489,0.033,550
2019-07-05T05:39:04,42.805,6.029,CST-1368DR,8785,12290,15490,0.032,550
2019-07-05T05:42:06,42.805,6.029,CST-1368DR,8785,12291,15491,0.032,551
2019-07-05T05:45:07,42.805,6.029,CST-1368DR,8785,12292,15492,0.032,551
2019-07-05T05:48:08,42.805,6.029,CST-1368DR,8785,12289,15489,0.033,551
2019-07-05T05:51:10,42.805,6.029,CST-1368DR,8785,12290,15490,0.032,551
2019-07-05T05:54:11,42.805,6.029,CST-1368DR,8785,12291,15491,0.032,551
2019-07-05T05:57:13,42.805,6.029,CST-1368DR,8785,12292,15493,0.032,550
2019-07-05T06:00:14,42.805,6.029,CST-1368DR,8785,12291,15491,0.032,550
2019-07-05T06:03:16,42.805,6.029,CST-1368DR,8785,12292,15492,0.032,551
2019-07-05T06:06:17,42.805,6.029,CST-1368DR,8785,12292,15492,0.032,551
2019-07-05T06:09:18,42.805,6.029,CST-1368DR,8785,12289,15489,0.033,551
2019-07-05T06:12:20,42.805,6.029,CST-1368DR,8785,12292,15492,0.032,551
2019-07-05T06:15:21,42.805,6.029,CST-1368DR,8785,12291,15491,0.032,551
2019-07-05T06:18:23,42.805,6.029,CST-1368DR,8785,12293,15493,0.032,551
2019-07-05T06:21:24,42.805,6.029,CST-1368DR,8785,12292,15492,0.032,551
2019-07-05T06:24:25,42.805,6.029,CST-1368DR,8784,12292,15494,0.031,551
2019-07-05T06:27:27,42.805,6.029,CST-1368DR,8784,12290,15492,0.032,551
2019-07-05T06:30:28,42.805,6.029,CST-1368DR,8784,12290,15492,0.032,551
2019-07-05T06:33:30,42.805,6.029,CST-1368DR,8784,12292,15493,0.032,551
2019-07-05T06:36:31,42.805,6.029,CST-1368DR,8784,12290,15491,0.032,551
2019-07-05T06:39:32,42.805,6.029,CST-1368DR,8784,12291,15492,0.032,551
2019-07-05T06:42:34,42.805,6.029,CST-1368DR,8784,12290,15492,0.032,551
2019-07-05T06:45:35,42.805,6.029,CST-1368DR,8784,12287,15488,0.033,551
2019-07-05T06:48:37,42.805,6.029,CST-1368DR,8784,12291,15492,0.032,551
2019-07-05T06:51:38,42.805,6.029,CST-1368DR,8784,12290,15492,0.032,551
2019-07-05T06:54:39,42.805,6.029,CST-1368DR,8784,12291,15493,0.032,551
2019-07-05T06:57:41,42.805,6.029,CST-1368DR,8784,12292,15493,0.032,551
2019-07-05T07:00:42,42.805,6.029,CST-1368DR,8784,12292,15494,0.031,551
2019-07-05T07:03:44,42.805,6.029,CST-1368DR,8784,12275,15472,0.037,551
2019-07-05T07:06:45,42.805,6.029,CST-1368DR,8784,12291,15492,0.032,551
2019-07-05T07:09:47,42.805,6.029,CST-1368DR,8784,12292,15493,0.032,551
2019-07-05T07:12:48,42.805,6.029,CST-1368DR,8784,12290,15492,0.032,550
2019-07-05T07:15:49,42.805,6.029,CST-1368DR,8784,12291,15492,0.032,551
2019-07-05T07:18:51,42.805,6.029,CST-1368DR,8784,12290,15492,0.032,551
2019-07-05T07:21:52,42.805,6.029,CST-1368DR,8784,12288,15489,0.033,551
2019-07-05T07:24:54,42.805,6.029,CST-1368DR,8784,12292,15494,0.031,551
2019-07-05T07:27:55,42.805,6.029,CST-1368DR,8784,12289,15491,0.032,551
2019-07-05T07:30:56,42.805,6.029,CST-1368DR,8784,12291,15493,0.032,551
2019-07-05T07:33:58,42.805,6.029,CST-1368DR,8784,12291,15493,0.032,551
2019-07-05T07:36:59,42.805,6.029,CST-1368DR,8784,12290,15492,0.032,551
2019-07-05T07:40:01,42.805,6.029,CST-1368DR,8784,12290,15491,0.032,551
2019-07-05T07:43:02,42.805,6.029,CST-1368DR,8784,12290,15491,0.032,551
2019-07-05T07:46:03,42.805,6.029,CST-1368DR,8784,12291,15492,0.032,551
2019-07-05T07:49:05,42.805,6.029,CST-1368DR,8784,12289,15491,0.032,551
2019-07-05T07:52:06,42.805,6.029,CST-1368DR,8784,12291,15492,0.032,551
2019-07-05T07:55:08,42.805,6.029,CST-1368DR,8784,12291,15492,0.032,551
2019-07-05T07:58:09,42.805,6.029,CST-1368DR,8784,12291,15493,0.032,551
2019-07-05T08:01:10,42.805,6.029,CST-1368DR,8784,12289,15490,0.032,551
2019-07-05T08:04:12,42.805,6.029,CST-1368DR,8784,12290,15492,0.032,551
2019-07-05T08:07:13,42.805,6.029,CST-1368DR,8784,12291,15492,0.032,550
2019-07-05T08:10:15,42.805,6.029,CST-1368DR,8783,12289,15492,0.032,551
2019-07-05T08:13:16,42.805,6.029,CST-1368DR,8783,12291,15494,0.031,551
2019-07-05T08:16:18,42.805,6.029,CST-1368DR,8783,12290,15493,0.032,551
2019-07-05T08:19:19,42.805,6.029,CST-1368DR,8783,12288,15491,0.032,551
2019-07-05T08:22:20,42.805,6.029,CST-1368DR,8783,12290,15493,0.032,551
2019-07-05T08:25:22,42.805,6.029,CST-1368DR,8783,12289,15492,0.032,551
2019-07-05T08:28:23,42.805,6.029,CST-1368DR,8783,12288,15491,0.032,551
2019-07-05T08:31:25,42.805,6.029,CST-1368DR,8783,12288,15491,0.032,551
2019-07-05T08:34:26,42.805,6.029,CST-1368DR,8783,12287,15490,0.032,551
2019-07-05T08:37:27,42.805,6.029,CST-1368DR,8783,12290,15493,0.032,551
2019-07-05T08:40:29,42.805,6.029,CST-1368DR,8783,12290,15493,0.032,551
2019-07-05T08:43:30,42.805,6.029,CST-1368DR,8783,12287,15489,0.033,551
2019-07-05T08:46:32,42.805,6.029,CST-1368DR,8783,12290,15493,0.032,551
2019-07-05T08:49:33,42.805,6.029,CST-1368DR,8783,12288,15491,0.032,551
2019-07-05T08:52:34,42.805,6.029,CST-1368DR,8783,12290,15493,0.032,551
2019-07-05T08:55:36,42.805,6.029,CST-1368DR,8783,12287,15490,0.032,551
2019-07-05T08:58:37,42.805,6.029,CST-1368DR,8783,12289,15492,0.032,551
2019-07-05T09:01:39,42.805,6.029,CST-1368DR,8783,12289,15491,0.032,551
2019-07-05T09:04:40,42.805,6.029,CST-1368DR,8783,12286,15488,0.033,551
2019-07-05T09:07:42,42.805,6.029,CST-1368DR,8783,12287,15489,0.033,551
2019-07-05T09:10:43,42.805,6.029,CST-1368DR,8783,12288,15491,0.032,551
2019-07-05T09:13:44,42.805,6.029,CST-1368DR,8783,12289,15492,0.032,551
2019-07-05T09:16:46,42.805,6.029,CST-1368DR,8783,12289,15492,0.032,551
2019-07-05T09:19:47,42.805,6.029,CST-1368DR,8783,12288,15490,0.032,551
2019-07-05T09:22:49,42.805,6.029,CST-1368DR,8783,12289,15492,0.032,551
2019-07-05T09:25:50,42.805,6.029,CST-1368DR,8783,12290,15493,0.032,551
2019-07-05T09:28:51,42.805,6.029,CST-1368DR,8783,12290,15493,0.032,551
2019-07-05T09:31:53,42.805,6.029,CST-1368DR,8783,12289,15491,0.032,551
2019-07-05T09:34:54,42.805,6.029,CST-1368DR,8783,12290,15493,0.032,551
2019-07-05T09:37:56,42.805,6.029,CST-1368DR,8783,12287,15490,0.032,551
2019-07-05T09:40:57,42.805,6.029,CST-1368DR,8783,12289,15492,0.032,551
2019-07-05T09:43:58,42.805,6.029,CST-1368DR,8783,12289,15492,0.032,551
2019-07-05T09:47:00,42.805,6.029,CST-1368DR,8783,12288,15490,0.032,551
2019-07-05T09:50:01,42.805,6.029,CST-1368DR,8783,12289,15492,0.032,551
2019-07-05T09:53:03,42.805,6.029,CST-1368DR,8783,12289,15492,0.032,551
2019-07-05T09:56:04,42.805,6.029,CST-1368DR,8783,12289,15492,0.032,551
2019-07-05T09:59:05,42.805,6.029,CST-1368DR,8783,12289,15492,0.032,551
2019-07-05T10:02:07,42.805,6.029,CST-1368DR,8782,12288,15492,0.032,551
2019-07-05T10:05:08,42.805,6.029,CST-1368DR,8782,12289,15494,0.031,551
2019-07-05T10:08:10,42.805,6.029,CST-1368DR,8782,12290,15494,0.031,551
2019-07-05T10:11:11,42.805,6.029,CST-1368DR,8782,12288,15492,0.032,551
2019-07-05T10:14:13,42.805,6.029,CST-1368DR,8782,12288,15492,0.032,551
2019-07-05T10:17:14,42.805,6.029,CST-1368DR,8782,12289,15493,0.032,551
2019-07-05T10:20:15,42.805,6.029,CST-1368DR,8782,12287,15491,0.032,550
2019-07-05T10:23:17,42.805,6.029,CST-1368DR,8782,12289,15493,0.032,551
2019-07-05T10:26:18,42.805,6.029,CST-1368DR,8782,12289,15494,0.031,551
2019-07-05T10:29:20,42.805,6.029,CST-1368DR,8782,12287,15490,0.032,550
2019-07-05T10:32:21,42.805,6.029,CST-1368DR,8782,12286,15490,0.032,551
2019-07-05T10:35:22,42.805,6.029,CST-1368DR,8782,12288,15492,0.032,551
2019-07-05T10:38:24,42.805,6.029,CST-1368DR,8782,12288,15493,0.032,551
2019-07-05T10:41:25,42.805,6.029,CST-1368DR,8782,12289,15493,0.032,551
2019-07-05T10:44:27,42.805,6.029,CST-1368DR,8782,12289,15493,0.032,551
2019-07-05T10:47:28,42.805,6.029,CST-1368DR,8782,12285,15489,0.033,551
2019-07-05T10:50:29,42.805,6.029,CST-1368DR,8782,12288,15493,0.032,551
2019-07-05T10:53:31,42.805,6.029,CST-1368DR,8782,12283,15486,0.033,551
2019-07-05T10:56:32,42.805,6.029,CST-1368DR,8782,12288,15492,0.032,551
2019-07-05T10:59:34,42.805,6.029,CST-1368DR,8782,12289,15493,0.032,551
2019-07-05T11:02:35,42.805,6.029,CST-1368DR,8782,12289,15494,0.031,551
2019-07-05T11:05:36,42.805,6.029,CST-1368DR,8782,12287,15490,0.032,551
2019-07-05T11:08:38,42.805,6.029,CST-1368DR,8782,12287,15490,0.032,551
2019-07-05T11:11:39,42.805,6.029,CST-1368DR,8782,12287,15491,0.032,550
2019-07-05T11:14:41,42.805,6.029,CST-1368DR,8782,12288,15492,0.032,551
2019-07-05T11:17:42,42.805,6.029,CST-1368DR,8782,12288,15493,0.032,551
2019-07-05T11:20:44,42.805,6.029,CST-1368DR,8782,12287,15491,0.032,551
2019-07-05T11:23:45,42.805,6.029,CST-1368DR,8782,12287,15491,0.032,551
2019-07-05T11:26:46,42.805,6.029,CST-1368DR,8782,12288,15492,0.032,551
2019-07-05T11:29:48,42.805,6.029,CST-1368DR,8782,12288,15492,0.032,551
2019-07-05T11:32:49,42.805,6.029,CST-1368DR,8782,12285,15488,0.033,551
2019-07-05T11:35:51,42.805,6.029,CST-1368DR,8782,12288,15492,0.032,551
2019-07-05T11:38:52,42.805,6.029,CST-1368DR,8782,12286,15490,0.032,550
2019-07-05T11:41:53,42.805,6.029,CST-1368DR,8781,12287,15492,0.032,551
2019-07-05T11:44:55,42.805,6.029,CST-1368DR,8781,12287,15493,0.032,551
2019-07-05T11:47:56,42.805,6.029,CST-1368DR,8781,12285,15489,0.033,551
2019-07-05T11:50:58,42.805,6.029,CST-1368DR,8781,12287,15492,0.032,551
2019-07-05T11:53:59,42.805,6.029,CST-1368DR,8781,12287,15493,0.032,551
2019-07-05T11:57:00,42.805,6.029,CST-1368DR,8781,12284,15488,0.033,551
2019-07-05T12:00:02,42.805,6.029,CST-1368DR,8781,12287,15493,0.032,551
2019-07-05T12:03:03,42.805,6.029,CST-1368DR,8781,12286,15491,0.032,551
2019-07-05T12:06:05,42.805,6.029,CST-1368DR,8781,12288,15493,0.032,551
2019-07-05T12:09:06,42.805,6.029,CST-1368DR,8781,12287,15492,0.032,551
2019-07-05T12:12:07,42.805,6.029,CST-1368DR,8781,12287,15492,0.032,551
2019-07-05T12:15:09,42.805,6.029,CST-1368DR,8781,12288,15494,0.031,550
2019-07-05T12:18:10,42.805,6.029,CST-1368DR,8781,12284,15488,0.033,551
2019-07-05T12:21:12,42.805,6.029,CST-1368DR,8781,12287,15492,0.032,551
2019-07-05T12:24:13,42.805,6.029,CST-1368DR,8781,12286,15491,0.032,551
2019-07-05T12:27:15,42.805,6.029,CST-1368DR,8781,12287,15492,0.032,551
2019-07-05T12:30:16,42.805,6.029,CST-1368DR,8781,12286,15491,0.032,551
2019-07-05T12:33:17,42.805,6.029,CST-1368DR,8781,12286,15492,0.032,551
2019-07-05T12:36:19,42.805,6.029,CST-1368DR,8781,12287,15492,0.032,550
2019-07-05T12:39:20,42.805,6.029,CST-1368DR,8781,12286,15491,0.032,551
2019-07-05T12:42:22,42.805,6.029,CST-1368DR,8781,12287,15493,0.032,551
2019-07-05T12:45:23,42.805,6.029,CST-1368DR,8781,12286,15492,0.032,551
2019-07-05T12:48:24,42.805,6.029,CST-1368DR,8781,12285,15489,0.033,550
2019-07-05T12:51:26,42.805,6.029,CST-1368DR,8781,12287,15492,0.032,551
2019-07-05T12:54:27,42.805,6.029,CST-1368DR,8781,12286,15491,0.032,551
2019-07-05T12:57:29,42.805,6.029,CST-1368DR,8781,12286,15491,0.032,550
2019-07-05T13:00:30,42.805,6.029,CST-1368DR,8781,12287,15492,0.032,551
2019-07-05T13:03:31,42.805,6.029,CST-1368DR,8781,12286,15492,0.032,551
2019-07-05T13:06:33,42.805,6.029,CST-1368DR,8781,12287,15492,0.032,551
2019-07-05T13:09:34,42.805,6.029,CST-1368DR,8781,12287,15492,0.032,551
2019-07-05T13:12:36,42.805,6.029,CST-1368DR,8781,12285,15490,0.032,551
2019-07-05T13:15:37,42.805,6.029,CST-1368DR,8781,12287,15492,0.032,551
2019-07-05T13:18:38,42.805,6.029,CST-1368DR,8781,12286,15492,0.032,551
2019-07-05T13:21:40,42.805,6.029,CST-1368DR,8781,12285,15490,0.032,551
2019-07-05T13:24:41,42.805,6.029,CST-1368DR,8781,12287,15493,0.032,551
2019-07-05T13:27:43,42.805,6.029,CST-1368DR,8781,12285,15490,0.032,551
2019-07-05T13:30:44,42.805,6.029,CST-1368DR,8781,12284,15488,0.033,550
2019-07-05T13:33:46,42.805,6.029,CST-1368DR,8781,12287,15492,0.032,551
2019-07-05T13:36:47,42.805,6.029,CST-1368DR,8781,12285,15490,0.032,551
2019-07-05T13:39:48,42.805,6.029,CST-1368DR,8781,12284,15488,0.033,551
2019-07-05T13:42:50,42.805,6.029,CST-1368DR,8781,12285,15490,0.032,551
2019-07-05T13:45:51,42.805,6.029,CST-1368DR,8781,12286,15492,0.032,551
2019-07-05T13:48:53,42.805,6.029,CST-1368DR,8781,12286,15492,0.032,551
2019-07-05T13:51:54,42.805,6.029,CST-1368DR,8780,12286,15492,0.032,551
2019-07-05T13:54:55,42.805,6.029,CST-1368DR,8780,12283,15489,0.033,551
2019-07-05T13:57:57,42.805,6.029,CST-1368DR,8780,12286,15493,0.032,551
2019-07-05T14:00:58,42.805,6.029,CST-1368DR,8780,12282,15487,0.033,551
2019-07-05T14:04:00,42.805,6.029,CST-1368DR,8780,12285,15491,0.032,551
2019-07-05T14:07:01,42.805,6.029,CST-1368DR,8780,12285,15491,0.032,551
2019-07-05T14:10:02,42.805,6.029,CST-1368DR,8780,12285,15492,0.032,551
2019-07-05T14:13:04,42.805,6.029,CST-1368DR,8780,12286,15493,0.032,551
2019-07-05T14:16:05,42.805,6.029,CST-1368DR,8780,12282,15488,0.033,551
2019-07-05T14:19:07,42.805,6.029,CST-1368DR,8780,12284,15490,0.032,551
2019-07-05T14:22:08,42.805,6.029,CST-1368DR,8780,12285,15491,0.032,551
2019-07-05T14:25:09,42.805,6.029,CST-1368DR,8780,12285,15491,0.032,551
2019-07-05T14:28:11,42.805,6.029,CST-1368DR,8780,12276,15480,0.035,551
2019-07-05T14:31:12,42.805,6.029,CST-1368DR,8780,12285,15491,0.032,551
2019-07-05T14:34:14,42.805,6.029,CST-1368DR,8780,12285,15492,0.032,551
2019-07-05T14:37:15,42.805,6.029,CST-1368DR,8780,12285,15492,0.032,551
2019-07-05T14:40:17,42.805,6.029,CST-1368DR,8780,12285,15491,0.032,551
2019-07-05T14:43:18,42.805,6.029,CST-1368DR,8780,12285,15492,0.032,551
2019-07-05T14:46:19,42.805,6.029,CST-1368DR,8780,12285,15492,0.032,551
2019-07-05T14:49:21,42.805,6.029,CST-1368DR,8780,12285,15492,0.032,550
2019-07-05T14:52:22,42.805,6.029,CST-1368DR,8780,12284,15490,0.032,551
2019-07-05T14:55:24,42.805,6.029,CST-1368DR,8780,12283,15489,0.033,551
2019-07-05T14:58:25,42.805,6.029,CST-1368DR,8780,12281,15486,0.033,551
2019-07-05T15:01:26,42.805,6.029,CST-1368DR,8780,12284,15490,0.032,551
2019-07-05T15:04:28,42.805,6.029,CST-1368DR,8780,12286,15492,0.032,551
2019-07-05T15:07:29,42.805,6.029,CST-1368DR,8780,12283,15489,0.033,551
2019-07-05T15:10:31,42.805,6.029,CST-1368DR,8780,12285,15491,0.032,551
2019-07-05T15:13:32,42.805,6.029,CST-1368DR,8780,12284,15490,0.032,551
2019-07-05T15:16:33,42.805,6.029,CST-1368DR,8780,12284,15490,0.032,551
2019-07-05T15:19:35,42.805,6.029,CST-1368DR,8779,12278,15484,0.034,551
2019-07-05T15:22:36,42.805,6.029,CST-1368DR,8780,12284,15490,0.032,550
2019-07-05T15:25:38,42.805,6.029,CST-1368DR,8779,12285,15493,0.032,551
2019-07-05T15:28:39,42.805,6.029,CST-1368DR,8779,12283,15490,0.032,551
2019-07-05T15:31:41,42.805,6.029,CST-1368DR,8779,12285,15493,0.032,551
2019-07-05T15:34:42,42.805,6.029,CST-1368DR,8779,12283,15490,0.032,551
2019-07-05T15:37:43,42.805,6.029,CST-1368DR,8779,12283,15491,0.032,551
2019-07-05T15:40:45,42.805,6.029,CST-1368DR,8779,12279,15485,0.034,551
2019-07-05T15:43:46,42.805,6.029,CST-1368DR,8779,12283,15491,0.032,551
2019-07-05T15:46:48,42.805,6.029,CST-1368DR,8779,12275,15480,0.035,551
2019-07-05T15:49:49,42.805,6.029,CST-1368DR,8779,12284,15492,0.032,551
2019-07-05T15:52:50,42.805,6.029,CST-1368DR,8779,12285,15493,0.032,551
2019-07-05T15:55:52,42.805,6.029,CST-1368DR,8779,12284,15491,0.032,551
2019-07-05T15:58:53,42.805,6.029,CST-1368DR,8779,12283,15490,0.032,551
2019-07-05T16:01:55,42.805,6.029,CST-1368DR,8779,12284,15491,0.032,551
2019-07-05T16:04:56,42.805,6.029,CST-1368DR,8779,12283,15491,0.032,551
2019-07-05T16:07:57,42.805,6.029,CST-1368DR,8779,12282,15490,0.032,550
2019-07-05T16:10:59,42.805,6.029,CST-1368DR,8779,12283,15491,0.032,551
2019-07-05T16:14:00,42.805,6.029,CST-1368DR,8779,12283,15491,0.032,551
2019-07-05T16:17:02,42.805,6.029,CST-1368DR,8779,12283,15491,0.032,550
2019-07-05T16:20:03,42.805,6.029,CST-1368DR,8779,12280,15487,0.033,551
2019-07-05T16:23:04,42.805,6.029,CST-1368DR,8779,12282,15489,0.033,551
2019-07-05T16:26:06,42.805,6.029,CST-1368DR,8779,12283,15490,0.032,551
2019-07-05T16:29:07,42.805,6.029,CST-1368DR,8779,12284,15491,0.032,551
2019-07-05T16:32:09,42.805,6.029,CST-1368DR,8779,12283,15490,0.032,551
2019-07-05T16:35:10,42.805,6.029,CST-1368DR,8779,12280,15487,0.033,551